Location: Gleizolles
(44.4833°N, 6.7667°E)
Time: 04:47:46
(UTC+00:00)

Vanguard 2 - Pass Details

Date: 04 July 2024
Orbit: 552 x 2913 km, 32.9° (Epoch: 17 July)

Event Time Altitude Azimuth Distance (km) Brightness Sun altitude
Exits shadow 00:17:53 18° 144° (SE) 3,133 10.2 -22.0°
Maximum altitude 00:18:43 18° 137° (SE) 3,201 10.3 -22.0°
Drops below altitude 10° 00:25:29 10° 101° (ESE) 4,425 11.4 -21.8°
Sets 00:31:26 0° 86° (E) 5,912 12.3 -21.5°
